Albert Lea, MN

12:16 PM CDT on September 16, 2019 (GMT -0500)
Albert Lea Municipal

Weather History for KAEL - August, 2019

Change the Weather History Date:

Monday, August 19, 2019

  Actual Average Record
Temperature  
Mean Temperature 64 °F -  
Max Temperature 78 °F 75 °F 86 °F (2005)
Min Temperature 51 °F 57 °F 44 °F (2004)
Growing Degree Days 14 (Base 50)    
Moisture  
Dew Point 59 °F    
Average Humidity 81    
Maximum Humidity 100    
Minimum Humidity 57    
Precipitation  
Precipitation 0.01 in - - ()
Sea Level Pressure  
Sea Level Pressure 30.02 in    
Wind  
Wind Speed 2 mph ()    
Max Wind Speed 8 mph    
Max Gust Speed -    
Visibility 9.9 miles    
Events      
Averages and records for this station are not official NWS values.
T = Trace of Precipitation, MM = Missing Value Source: Averaged Metar Reports

Daily Weather History Graph

Daily Weather History Graph

Search for Another Location

Airport or City:

Astronomy

Aug. 19, 2019 Rise Set
Actual Time 6:22 AM CDT 8:11 PM CDT
Civil Twilight 5:51 AM CDT 8:41 PM CDT
Nautical Twilight 5:14 AM CDT 9:19 PM CDT
Astronomical Twilight 4:33 AM CDT 9:59 PM CDT
Moon 10:25 PM CDT (8/19) 10:10 AM CDT (8/19)
Length of Visible Light 14h 50m
Length of Day
13h 48m
Waning Gibbous, 85% of the Moon is Illuminated
Aug 19
Waning Gibbous
Aug 23
Last Quarter
Aug 30
New
Sep 5
First Quarter
Sep 13
Full

Hourly Weather History & Observations

Time (CDT) Temp. Dew Point Humidity Pressure Visibility Wind Dir Wind Speed Gust Speed Precip Events Conditions
12:15 AM 55.4 °F 55.4 °F 100% 29.98 in 10.0 mi Calm Calm - N/A   Clear
12:16 AM 55.4 °F 55.4 °F 100% 29.97 in 10.0 mi Calm Calm - N/A   Clear
12:35 AM 55.4 °F 55.4 °F 100% 29.98 in 10.0 mi Calm Calm - N/A   Clear
12:55 AM 55.4 °F 55.4 °F 100% 29.98 in 10.0 mi Calm Calm - N/A   Clear
1:15 AM 55.4 °F 55.4 °F 100% 29.98 in 10.0 mi Calm Calm - N/A   Clear
1:35 AM 55.4 °F 55.4 °F 100% 29.99 in 10.0 mi Calm Calm - N/A   Clear
1:36 AM 55.4 °F 55.4 °F 100% 29.99 in 10.0 mi Calm Calm - N/A   Clear
1:55 AM 55.4 °F 55.4 °F 100% 29.99 in 10.0 mi Calm Calm - N/A   Clear
2:15 AM 53.6 °F 53.6 °F 100% 30.00 in 10.0 mi Calm Calm - N/A   Clear
2:16 AM 53.6 °F 53.6 °F 100% 30.00 in 10.0 mi Calm Calm - N/A   Clear
2:35 AM 53.6 °F 53.6 °F 100% 30.00 in 10.0 mi Calm Calm - N/A   Clear
2:36 AM 53.6 °F 53.6 °F 100% 30.00 in 10.0 mi Calm Calm - N/A   Clear
2:55 AM 53.6 °F 53.6 °F 100% 30.00 in 10.0 mi Calm Calm - N/A   Clear
2:56 AM 53.6 °F 53.6 °F 100% 30.00 in 10.0 mi Calm Calm - N/A   Clear
3:15 AM 53.6 °F 53.6 °F 100% 30.00 in 10.0 mi Calm Calm - N/A   Clear
3:16 AM 53.6 °F 53.6 °F 100% 30.00 in 10.0 mi Calm Calm - N/A   Clear
3:35 AM 53.6 °F 53.6 °F 100% 30.00 in 10.0 mi Calm Calm - N/A   Clear
3:36 AM 53.6 °F 53.6 °F 100% 30.00 in 10.0 mi Calm Calm - N/A   Clear
3:55 AM 53.6 °F 53.6 °F 100% 30.00 in 10.0 mi Calm Calm - N/A   Clear
3:56 AM 53.6 °F 53.6 °F 100% 30.00 in 10.0 mi Calm Calm - N/A   Clear
4:15 AM 53.6 °F 53.6 °F 100% 30.01 in 10.0 mi Calm Calm - N/A   Clear
4:16 AM 53.6 °F 53.6 °F 100% 30.01 in 10.0 mi Calm Calm - N/A   Clear
4:35 AM 53.6 °F 53.6 °F 100% 30.01 in 10.0 mi Calm Calm - N/A   Clear
4:55 AM 53.6 °F 53.6 °F 100% 30.02 in 10.0 mi Calm Calm - N/A   Clear
4:56 AM 53.6 °F 53.6 °F 100% 30.02 in 10.0 mi Calm Calm - N/A   Clear
5:15 AM 53.6 °F 53.6 °F 100% 30.02 in 10.0 mi Calm Calm - N/A   Clear
5:35 AM 51.8 °F 51.8 °F 100% 30.02 in 10.0 mi Calm Calm - N/A   Clear
5:36 AM 51.8 °F 51.8 °F 100% 30.02 in 10.0 mi Calm Calm - N/A   Clear
5:55 AM 53.6 °F 53.6 °F 100% 30.02 in 7.0 mi Calm Calm - N/A   Clear
5:56 AM 53.6 °F 53.6 °F 100% 30.02 in 7.0 mi Calm Calm - N/A   Clear
6:15 AM 51.8 °F 51.8 °F 100% 30.03 in 10.0 mi Calm Calm - N/A   Clear
6:16 AM 51.8 °F 51.8 °F 100% 30.03 in 10.0 mi Calm Calm - N/A   Clear
6:35 AM 53.6 °F 53.6 °F 100% 30.03 in 10.0 mi Calm Calm - N/A   Clear
6:55 AM 53.6 °F 53.6 °F 100% 30.03 in 10.0 mi Calm Calm - N/A   Clear
7:15 AM 55.4 °F 55.4 °F 100% 30.03 in 10.0 mi Calm Calm - N/A   Clear
7:35 AM 57.2 °F 55.4 °F 94% 30.03 in 10.0 mi Calm Calm - N/A   Clear
7:36 AM 57.2 °F 55.4 °F 94% 30.03 in 10.0 mi Calm Calm - N/A   Clear
7:55 AM 57.2 °F 57.2 °F 100% 30.03 in 10.0 mi Calm Calm - N/A   Clear
7:56 AM 57.2 °F 57.2 °F 100% 30.03 in 10.0 mi Calm Calm - N/A   Clear
8:15 AM 60.8 °F 57.2 °F 88% 30.04 in 10.0 mi Calm Calm - N/A   Clear
8:35 AM 62.6 °F 55.4 °F 77% 30.04 in 10.0 mi Calm Calm - N/A   Clear
8:55 AM 64.4 °F 57.2 °F 77% 30.03 in 10.0 mi SSE 3.5 mph - N/A   Clear
8:56 AM 64.4 °F 57.2 °F 77% 30.03 in 10.0 mi SSE 4.6 mph - N/A   Clear
9:15 AM 64.4 °F 55.4 °F 73% 30.03 in 10.0 mi SE 4.6 mph - N/A   Clear
9:35 AM 66.2 °F 55.4 °F 68% 30.03 in 10.0 mi SSE 4.6 mph - N/A   Clear
9:55 AM 68.0 °F 55.4 °F 64% 30.04 in 10.0 mi SE 3.5 mph - N/A   Clear
9:56 AM 68.0 °F 57.2 °F 68% 30.04 in 10.0 mi SSE 3.5 mph - N/A   Clear
10:15 AM 69.8 °F 57.2 °F 64% 30.04 in 10.0 mi SSE 5.8 mph - N/A   Clear
10:16 AM 69.8 °F 55.4 °F 60% 30.04 in 10.0 mi SE 5.8 mph - N/A   Clear
10:35 AM 69.8 °F 59.0 °F 68% 30.04 in 10.0 mi SE 5.8 mph - N/A   Clear
10:55 AM 71.6 °F 59.0 °F 64% 30.05 in 10.0 mi SSE 6.9 mph - N/A   Clear
11:15 AM 71.6 °F 59.0 °F 64% 30.05 in 10.0 mi SSE 5.8 mph - N/A   Clear
11:35 AM 71.6 °F 59.0 °F 64% 30.05 in 10.0 mi South 3.5 mph - N/A   Clear
11:36 AM 71.6 °F 59.0 °F 64% 30.05 in 10.0 mi South 3.5 mph - N/A   Clear
11:55 AM 71.6 °F 60.8 °F 69% 30.05 in 10.0 mi SE 5.8 mph - N/A   Clear
11:56 AM 71.6 °F 60.8 °F 69% 30.04 in 10.0 mi SSE 8.1 mph - N/A   Clear
12:15 PM 73.4 °F 60.8 °F 65% 30.05 in 10.0 mi South 6.9 mph - N/A   Clear
12:35 PM 73.4 °F 60.8 °F 65% 30.05 in 10.0 mi SSE 5.8 mph - N/A   Clear
12:55 PM 73.4 °F 60.8 °F 65% 30.05 in 10.0 mi Calm Calm - N/A   Clear
1:15 PM 75.2 °F 60.8 °F 61% 30.05 in 10.0 mi SSE 4.6 mph - N/A   Clear
1:16 PM 75.2 °F 60.8 °F 61% 30.05 in 10.0 mi SSE 4.6 mph - N/A   Clear
1:35 PM 75.2 °F 60.8 °F 61% 30.04 in 10.0 mi South 5.8 mph - N/A   Clear
1:55 PM 75.2 °F 60.8 °F 61% 30.04 in 10.0 mi WSW 3.5 mph - 0.01 in   Clear
1:56 PM 75.2 °F 62.6 °F 65% 30.04 in 10.0 mi WSW 3.5 mph - N/A   Clear
2:15 PM 75.2 °F 60.8 °F 61% 30.04 in 10.0 mi SSW 3.5 mph - N/A   Clear
2:16 PM 75.2 °F 60.8 °F 61% 30.04 in 10.0 mi South 4.6 mph - N/A   Clear
2:35 PM 75.2 °F 60.8 °F 61% 30.04 in 10.0 mi WSW 3.5 mph - N/A   Scattered Clouds
2:55 PM 77.0 °F 62.6 °F 61% 30.03 in 10.0 mi South 6.9 mph - N/A   Clear
2:56 PM 77.0 °F 62.6 °F 61% 30.03 in 10.0 mi SSE 5.8 mph - N/A   Clear
3:15 PM 77.0 °F 62.6 °F 61% 30.03 in 10.0 mi SSE 4.6 mph - N/A   Clear
3:16 PM 77.0 °F 64.4 °F 65% 30.03 in 10.0 mi South 4.6 mph - N/A   Clear
3:35 PM 77.0 °F 62.6 °F 61% 30.02 in 10.0 mi SW 5.8 mph - N/A   Clear
3:55 PM 77.0 °F 62.6 °F 61% 30.02 in 10.0 mi SSW 4.6 mph - N/A   Clear
3:56 PM 77.0 °F 62.6 °F 61% 30.02 in 10.0 mi SW 5.8 mph - N/A   Clear
4:15 PM 78.8 °F 62.6 °F 57% 30.01 in 10.0 mi South 3.5 mph - N/A   Clear
4:35 PM 77.0 °F 62.6 °F 61% 30.01 in 10.0 mi SSW 3.5 mph - N/A   Clear
4:36 PM 77.0 °F 62.6 °F 61% 30.01 in 10.0 mi SW 3.5 mph - N/A   Clear
4:55 PM 77.0 °F 64.4 °F 65% 30.01 in 10.0 mi SSW 3.5 mph - N/A   Clear
5:15 PM 77.0 °F 62.6 °F 61% 30.01 in 10.0 mi SSW 4.6 mph - N/A   Clear
5:16 PM 77.0 °F 62.6 °F 61% 30.01 in 10.0 mi SSW 5.8 mph - N/A   Clear
5:55 PM 75.2 °F 62.6 °F 65% 30.01 in 10.0 mi South 5.8 mph - N/A   Clear
5:56 PM 75.2 °F 62.6 °F 65% 30.01 in 10.0 mi South 5.8 mph - N/A   Clear
6:15 PM 75.2 °F 64.4 °F 69% 30.00 in 10.0 mi South 4.6 mph - N/A   Clear
6:35 PM 75.2 °F 62.6 °F 65% 29.99 in 10.0 mi South 8.1 mph - N/A   Clear
6:55 PM 75.2 °F 64.4 °F 69% 29.99 in 10.0 mi South 4.6 mph - N/A   Clear
7:15 PM 75.2 °F 64.4 °F 69% 29.99 in 10.0 mi SSE 5.8 mph - N/A   Clear
7:16 PM 75.2 °F 64.4 °F 69% 29.99 in 10.0 mi SSE 5.8 mph - N/A   Clear
7:35 PM 73.4 °F 64.4 °F 73% 29.99 in 10.0 mi South 4.6 mph - N/A   Clear
7:36 PM 73.4 °F 64.4 °F 73% 29.99 in 10.0 mi South 4.6 mph - N/A   Clear
7:55 PM 71.6 °F 64.4 °F 78% 29.99 in 10.0 mi SSE 4.6 mph - N/A   Clear
8:15 PM 71.6 °F 64.4 °F 78% 30.00 in 10.0 mi SSE 3.5 mph - N/A   Clear
8:35 PM 71.6 °F 64.4 °F 78% 30.00 in 10.0 mi Calm Calm - N/A   Clear
8:36 PM 71.6 °F 64.4 °F 78% 30.00 in 10.0 mi Calm Calm - N/A   Clear
8:55 PM 69.8 °F 64.4 °F 83% 30.00 in 10.0 mi SE 3.5 mph - N/A   Clear
9:15 PM 68.0 °F 64.4 °F 88% 30.01 in 10.0 mi SE 4.6 mph - N/A   Clear
9:16 PM 68.0 °F 64.4 °F 88% 30.01 in 10.0 mi SE 4.6 mph - N/A   Clear
9:35 PM 68.0 °F 62.6 °F 83% 30.01 in 10.0 mi SE 4.6 mph - N/A   Clear
9:55 PM 66.2 °F 62.6 °F 88% 30.01 in 10.0 mi SSE 3.5 mph - N/A   Clear
9:56 PM 66.2 °F 62.6 °F 88% 30.01 in 10.0 mi SSE 3.5 mph - N/A   Clear
10:15 PM 66.2 °F 64.4 °F 94% 30.02 in 10.0 mi SE 3.5 mph - N/A   Clear
10:16 PM 66.2 °F 64.4 °F 94% 30.02 in 10.0 mi SE 3.5 mph - N/A   Clear
10:35 PM 68.0 °F 64.4 °F 88% 30.02 in 10.0 mi Calm Calm - N/A   Clear
10:55 PM 66.2 °F 62.6 °F 88% 30.03 in 10.0 mi SSE 3.5 mph - N/A   Clear
11:35 PM 66.2 °F 62.6 °F 88% 30.02 in 10.0 mi SSE 3.5 mph - N/A   Clear
11:55 PM 66.2 °F 62.6 °F 88% 30.01 in 10.0 mi SSE 4.6 mph - N/A   Scattered Clouds